#timestamp,LO_Frequency,Hit,StdDev 
1705230015.3,286046999.3,N
1705230035.1,286046996.8,N
1705230085.9,286046996.8,E
1705230095.8,286046999.4,N
1705230115.6,286047000.4,P
1705230135.5,286047000.7,N
1705230155.3,286046998.5,N
1705230175.1,286046999.0,N
1705230195.9,286046999.4,N
1705230215.7,286046999.3,N
1705230235.6,286046998.8,N
1705230255.4,286046998.4,N
1705230275.2,286046996.5,Y
1705230295.1,286046999.1,P
1705230296.0,286046999.1,P
1705230315.8,286046996.6,P
1705230335.7,286046996.5,Y
1705230355.5,286047001.1,P
1705230375.3,286047001.1,N
1705230395.2,286046998.3,N
1705230415.9,286046998.3,N
1705230435.7,286046998.5,N
1705230455.6,286046998.4,N
1705230475.4,286046999.1,N
1705230495.2,286046999.1,N
1705230515.1,286046998.9,N
1705230516.0,286046998.9,N
1705230535.8,286046999.1,N
1705230555.7,286046997.0,Y
1705230575.5,286046998.4,P
1705230595.3,286046999.0,N
1705230615.2,286046999.2,N
1705230635.0,286046999.4,N
1705230635.9,286046999.4,N
1705230655.8,286046999.0,Y
1705230675.6,286046998.9,P
1705230695.4,286046998.6,P
1705230715.3,286046998.5,P
1705230735.1,286046999.2,Y
1705230755.8,286047001.0,P
1705230775.7,286047000.4,N
1705230795.5,286047001.2,N
1705230815.4,286047000.4,N
1705230835.2,286047000.3,N
1705230855.0,286046999.4,N
1705230855.9,286046999.4,N
1705230875.8,286047000.5,N
1705230895.6,286046998.6,N
1705230915.4,286046999.6,N
1705230935.3,286046999.2,N
1705230955.1,286046998.9,N
1705230975.9,286046998.8,N
1705230995.7,286046996.8,Y
1705231015.5,286046999.3,P
1705231035.4,286046999.4,N
1705231055.2,286046997.1,P
1705231075.1,286046994.9,Y
1705231076.0,286046994.9,P
1705231095.8,286046996.8,N
1705231115.6,286046999.2,N
1705231135.5,286046996.9,N
1705231155.3,286046999.3,N
1705231175.1,286046997.3,N
1705231195.9,286046997.2,N
1705231215.7,286046996.7,N
1705231235.6,286046997.0,N
1705231255.4,286046997.9,N
1705231275.2,286046997.4,N
1705231295.1,286046997.4,N
1705231296.0,286046997.4,N
1705231315.8,286046994.9,Y
1705231335.6,286046999.1,P
1705231355.5,286046996.6,P
1705231375.3,286046999.5,N
1705231395.2,286046998.8,N
1705231415.9,286046998.7,N
1705231435.7,286046997.1,N
1705231455.6,286046996.8,Y
1705231475.4,286046998.6,P
1705231495.3,286046998.4,P
1705231515.1,286046998.4,P
1705231516.0,286046998.4,Y
1705231535.8,286047000.9,P
1705231555.7,286047000.3,N
1705231575.5,286046999.9,N
1705231595.3,286046998.1,N
1705231615.2,286046998.7,N
1705231635.0,286046999.1,N
1705231635.9,286046999.1,N
1705231655.8,286047001.2,N
1705231675.6,286046998.6,N
1705231695.4,286046999.5,N
1705231715.3,286046999.0,N
1705231735.1,286046998.9,N
1705231755.8,286046998.9,N
1705231775.7,286046999.4,N
1705231795.5,286046999.2,N
1705231815.4,286046997.0,Y
1705231835.2,286046999.4,P
1705231855.0,286046999.1,P
1705231855.9,286046999.1,P
1705231875.8,286046996.7,Y
1705231895.6,286046998.7,P
1705231915.5,286046999.6,N
1705231935.3,286046997.8,P
1705231955.1,286046996.8,Y
1705231975.9,286046999.2,P
1705231995.7,286046997.0,P
1705232015.5,286046997.1,P
1705232035.4,286046996.7,Y
1705232055.2,286046998.8,P
1705232075.1,286046998.8,P
1705232076.0,286046998.8,P
1705232095.8,286046999.2,N
1705232115.6,286046996.6,Y
1705232135.5,286046998.2,P
1705232155.3,286046998.1,P
1705232175.1,286047001.1,P
1705232195.9,286047001.0,N
1705232215.7,286047001.2,N
1705232235.6,286047000.6,N
1705232255.4,286046998.1,N
1705232275.2,286047000.8,N
1705232295.1,286047001.1,N
1705232296.0,286047001.1,N
1705232315.8,286047000.6,N
1705232335.6,286047000.5,N
1705232355.5,286047000.7,N
1705232375.3,286046998.4,N
1705232395.2,286046996.6,N
1705232415.9,286046999.1,N
1705232435.7,286046997.1,N
1705232455.6,286046997.6,N
1705232475.4,286046995.0,Y
1705232495.3,286046997.3,P
1705232515.1,286046999.6,N
1705232516.0,286046999.6,N
1705232535.8,286046997.0,Y
1705232555.7,286046998.2,P
1705232575.5,286046999.0,N
1705232595.3,286046997.0,P
1705232615.2,286046998.7,N
1705232635.0,286046998.5,N
1705232635.9,286046998.5,N
1705232655.8,286047000.9,N
1705232675.6,286046998.4,N
1705232695.4,286046998.5,N
1705232715.3,286047000.9,N
1705232735.1,286047001.2,N
1705232755.8,286047000.7,N
1705232775.7,286046998.2,N
1705232795.5,286046998.5,N
1705232815.4,286047000.6,N
1705232835.2,286047000.9,N
1705232855.0,286047000.9,N
1705232855.9,286047000.9,N
1705232875.8,286047000.5,N
1705232895.6,286047000.6,N
1705232915.4,286047002.3,N
1705232935.3,286047000.4,N
1705232955.1,286047002.3,N
1705232975.9,286047000.5,N
1705232995.7,286047000.2,N
1705233015.5,286047000.0,N
1705233035.4,286046999.8,N
1705233055.2,286047000.0,N
1705233075.0,286046999.9,N
1705233075.9,286046999.9,N
1705233095.8,286047000.5,N
1705233115.6,286047002.3,N
1705233135.5,286046999.7,N
1705233155.3,286047002.2,N
1705233175.1,286047002.0,N
1705233195.9,286047002.5,N
1705233215.7,286047002.0,N
1705233235.5,286047001.6,N
1705233255.4,286047001.9,N
1705233275.2,286047001.9,N
1705233295.1,286047002.2,N
1705233296.0,286047002.2,N
1705233315.8,286047002.1,N
1705233335.6,286047002.1,N
1705233355.5,286047001.4,N
1705233375.3,286047002.3,N
1705233395.1,286047002.5,N
1705233415.9,286047001.8,N
1705233435.7,286047001.4,N
1705233455.6,286047002.7,N
1705233475.4,286047000.8,N
1705233495.2,286046999.4,N
1705233515.1,286046999.3,N
1705233516.0,286046999.3,N
1705233535.8,286046998.9,N
1705233555.6,286046997.9,N
1705233575.5,286046997.7,N
1705233595.3,286046997.1,N
